SCOUT A DEB, 3122

Orbit data source: Space-Track

SCOUT A DEB, 3122 is space debris in LEO originally from a launch on Mon, 25 Sep 1967 UTC launched from the Air Force Western Test Range (AFWTR). Debris objects in space refer to the collection of defunct objects orbiting the Earth. Examples of debris include non-operational satellites, rocket bodies, and fragments generated from explosions, collisions, or faulty payload assembly.

Loading next visibility...
Identifier
3122, 1967-092D
Orbit
LEO
Country
Flag of USUS
Related business
Manufacturer
Unknown
Mission
Spacecraft
Bus & Motor
Unknown
Mass
Unknown
Launch date (UTC)
1967-09-25 (58 years ago)
Launch vehicle
Unknown
Launch site
Air Force Western Test Range (AFWTR)
Object type
Payload
Rocket body
Debris
Shape & HBR
Unknown shape, 0.1 m
Radar Cross Section
Small (<0.1 m²)

Expand to show TLE details & history
Last TLE update: 7 hours ago

TLE from 7 hours ago
0 SCOUT A DEB
1 03122U 67092D   25293.53432309  .00000308  00000-0  61488-3 0  9993
2 03122  89.0602 110.0030 0185953 169.0509 278.6421 13.25878387551262
Epoch: 2025-10-20T12:49Z
TLE epoch observation values (Epoch: 2025-10-20T12:49:25.514Z)
Latitude
85.49843°
Longitude
-99.62439°
Altitude
1,157.649 km
Speed
7.29 km/s
True Right ascension
08h 07m 52s
True Declination
85° 28' 22"
Sunlit
Object was in daylight at epoch
Visualization orbit readout
Latitude
Unknown
Longitude
Unknown
Altitude
Unknown
Speed
Unknown
Apparent Right ascension
Unknown
Apparent Declination
Unknown
Sunlit
N/A
Visualization observer readout
Local Sidereal Time
15:01:44
Azimuth
Unknown
Elevation
Unknown
Doppler factor
Unknown
Orbital elements
Apogee altitude
1,299.599 km
Perigee altitude
1,019.272 km
Semi-major axis
7,537.573 km
Eccentricity
0.0186
Inclination
89.0602°
RAAN
110.003°
Arg. of periapsis
169.0509°
True anomaly
276.52853°
Mean anomaly
278.6421°
Eccentric anomaly
277.58599°
Mean motion
3.31662 °/min
Orbital period
108.54 mins
BSTAR
0.00061488
Loading maneuver chart data...
Computing Atmospheric mass density...
Loading historical data...
Loading historical data...
Loading historical data...
Loading historical data...
Loading historical data...
Loading historical data...
Loading historical data...

Documentation

Showing up to 5 results
|